CW5622 Weather Reports


Display with metric or nautical units.
time (UTC)temp
F
wind
direction
speed
MPH
gust
MPH
rain 1hr
in
rain 24hr
in
rain mn
in
humidity
%
barometer
mb
20181020092531 50 207 3.0 0.0 0.00 0.00 0.01 100 1004.4
20181020091530 49 196 1.0 0.0 0.00 0.00 0.01 100 1004.5
20181020090531 49 200 0.0 0.0 0.00 0.00 0.01 100 1004.5
20181020085529 49 188 2.0 0.0 0.00 0.00 0.01 100 1004.8
20181020084529 49 188 0.0 0.0 0.00 0.00 0.01 100 1005.2
20181020083531 49 203 0.0 0.0 0.00 0.00 0.01 100 1005.2
20181020082529 49 195 0.0 0.0 0.00 0.00 0.01 100 1005.1
20181020081529 49 195 0.0 0.0 0.00 0.00 0.01 100 1005.7
20181020080529 50 195 0.0 0.0 0.00 0.00 0.01 98 1005.7
20181020075529 50 195 2.0 0.0 0.00 0.00 0.01 96 1005.0
20181020074529 50 186 3.0 0.0 0.00 0.00 0.00 93 1006.1
20181020073529 51 198 0.0 0.0 0.00 0.00 0.00 90 1006.1
20181020072529 51 171 3.0 0.0 0.00 0.00 0.00 86 1006.7
20181020071530 51 184 0.0 0.0 0.00 0.00 0.00 83 1006.9
20181020070529 51 209 4.0 0.0 0.00 0.00 0.00 82 1006.9
20181020065529 51 188 2.0 0.0 0.00 0.00 0.00 81 1006.9
20181020064530 51 173 1.0 0.0 0.00 0.00 0.00 81 1007.4
20181020063529 51 183 0.0 0.0 0.00 0.00 0.00 81 1007.4
20181020062529 51 177 3.0 0.0 0.00 0.00 0.00 81 1007.4
20181020061530 51 190 1.0 0.0 0.00 0.00 0.00 81 1007.4
20181020060529 51 186 2.0 0.0 0.00 0.00 0.00 81 1007.4
20181020055529 51 193 6.0 0.0 0.00 0.00 0.00 80 1007.8
20181020054529 51 195 0.0 0.0 0.00 0.00 0.00 80 1007.9
20181020053529 51 184 1.0 0.0 0.00 0.00 0.00 80 1007.9
20181020052529 51 177 3.0 0.0 0.00 0.00 0.00 80 1008.0
20181020051532 51 191 1.0 0.0 0.00 0.00 0.00 80 1008.0
20181020050529 50 194 1.0 0.0 0.00 0.00 0.00 80 1008.0
20181020045531 50 195 2.0 0.0 0.00 0.00 0.00 79 1008.8
20181020044529 50 186 2.0 0.0 0.00 0.00 0.00 79 1009.3
20181020043529 50 197 1.0 0.0 0.00 0.00 0.00 79 1009.3
20181020042529 50 189 2.0 0.0 0.00 0.00 0.00 79 1009.6
20181020041530 49 203 0.0 0.0 0.00 0.00 0.00 80 1009.6
20181020040529 49 192 0.0 0.0 0.00 0.00 0.00 79 1009.6
20181020035529 49 194 3.0 0.0 0.00 0.00 0.00 78 1010.0
20181020034529 49 184 0.0 0.0 0.00 0.00 0.00 77 1010.0
20181020033530 49 194 0.0 0.0 0.00 0.00 0.00 75 1010.0
20181020032530 49 193 0.0 0.0 0.00 0.00 0.00 74 1010.3
20181020031529 49 183 0.0 0.0 0.00 0.00 0.00 73 1011.0
20181020030532 49 190 4.0 0.0 0.00 0.00 0.00 72 1011.0
20181020025529 49 178 0.0 0.0 0.00 0.00 0.00 71 1010.8
20181020024529 50 185 0.0 0.0 0.00 0.00 0.00 70 1010.8
20181020023529 50 157 0.0 0.0 0.00 0.00 0.00 70 1010.8
20181020022531 50 200 0.0 0.0 0.00 0.00 0.00 69 1011.1
20181020021530 50 188 0.0 0.0 0.00 0.00 0.00 69 1011.8
20181020020531 49 192 0.0 0.0 0.00 0.00 0.00 69 1011.8
20181020015530 49 167 0.0 0.0 0.00 0.00 0.00 69 1012.0
20181020014530 50 186 0.0 0.0 0.00 0.00 0.00 68 1012.3
20181020013530 50 185 0.0 0.0 0.00 0.00 0.00 68 1012.3
20181020012529 50 176 3.0 0.0 0.00 0.00 0.00 68 1012.3
20181020011531 49 177 0.0 0.0 0.00 0.00 0.00 69 1012.5
20181020010530 50 184 0.0 0.0 0.00 0.00 0.00 70 1012.5
20181020005530 50 160 2.0 0.0 0.00 0.00 0.00 70 1012.4
20181020004529 50 194 1.0 0.0 0.00 0.00 0.00 70 1013.2
20181020003531 50 193 8.0 0.0 0.00 0.00 0.00 70 1013.2
20181020002529 50 189 2.0 0.0 0.00 0.00 0.00 70 1013.3
20181020001531 50 196 0.0 0.0 0.00 0.00 0.00 69 1013.2
20181020000530 51 195 7.0 0.0 0.00 0.00 0.00 68 1013.2
20181019235529 51 183 1.0 0.0 0.00 0.00 0.00 68 1013.5
20181019234529 51 196 2.0 0.0 0.00 0.00 0.00 68 1013.4
20181019233529 51 192 0.0 0.0 0.00 0.00 0.00 67 1013.4
20181019232529 52 198 3.0 0.0 0.00 0.00 0.00 67 1013.7
20181019231529 52 198 2.0 0.0 0.00 0.00 0.00 65 1014.0
20181019230529 52 194 2.0 0.0 0.00 0.00 0.00 64 1014.0
20181019225532 52 197 2.0 0.0 0.00 0.00 0.00 63 1014.1
20181019224530 53 195 0.0 0.0 0.00 0.00 0.00 62 1014.0
20181019223530 53 163 0.0 0.0 0.00 0.00 0.00 62 1014.0
20181019222530 53 187 0.0 0.0 0.00 0.00 0.00 62 1014.3
20181019221530 54 196 0.0 0.0 0.00 0.00 0.00 61 1014.4
20181019220530 54 198 0.0 0.0 0.00 0.00 0.00 61 1014.4
20181019215530 54 195 2.0 0.0 0.00 0.00 0.00 60 1014.3
20181019214530 55 192 1.0 0.0 0.00 0.00 0.00 60 1014.3
20181019213530 56 186 0.0 0.0 0.00 0.00 0.00 57 1014.3
20181019212530 56 192 1.0 0.0 0.00 0.00 0.00 61 1013.9
20181019211531 57 186 4.0 0.0 0.00 0.00 0.00 60 1013.9
20181019210530 57 201 1.0 0.0 0.00 0.00 0.00 59 1013.9
20181019205530 58 159 0.0 0.0 0.00 0.00 0.00 59 1014.0
20181019204531 58 200 0.0 0.0 0.00 0.00 0.00 57 1014.2
20181019203532 58 190 2.0 0.0 0.00 0.00 0.00 57 1014.2
20181019202531 58 189 0.0 0.0 0.00 0.00 0.00 56 1014.3
20181019201530 59 157 0.0 0.0 0.00 0.00 0.00 54 1014.6
20181019200531 60 195 3.0 0.0 0.00 0.00 0.00 51 1014.6
20181019195530 62 195 0.0 0.0 0.00 0.00 0.00 48 1014.9
20181019194530 64 200 1.0 0.0 0.00 0.00 0.00 44 1014.9
20181019193530 64 194 6.0 0.0 0.00 0.00 0.00 44 1014.9
20181019192530 64 188 0.0 0.0 0.00 0.00 0.00 44 1015.3
20181019191531 63 185 2.0 0.0 0.00 0.00 0.00 45 1015.6
20181019190530 64 203 0.0 0.0 0.00 0.00 0.00 43 1015.6
20181019185530 63 192 0.0 0.0 0.00 0.00 0.00 42 1015.8
20181019184530 63 194 10.0 0.0 0.00 0.00 0.00 42 1016.0
20181019183530 63 191 7.0 0.0 0.00 0.00 0.00 42 1016.0
20181019182530 63 286 1.0 0.0 0.00 0.00 0.00 43 1016.3
20181019181530 62 155 0.0 0.0 0.00 0.00 0.00 43 1016.8
20181019180531 63 140 0.0 0.0 0.00 0.00 0.00 40 1016.8
20181019175530 64 162 0.0 0.0 0.00 0.00 0.00 42 1017.1
20181019174530 64 216 2.0 0.0 0.00 0.00 0.00 44 1017.5
20181019173530 63 226 0.0 0.0 0.00 0.00 0.00 43 1017.5
20181019172530 62 198 3.0 0.0 0.00 0.00 0.00 45 1017.8
20181019171530 63 198 1.0 0.0 0.00 0.00 0.00 43 1018.1
20181019170530 60 184 2.0 0.0 0.00 0.00 0.00 47 1018.1
20181019165530 59 177 0.0 0.0 0.00 0.00 0.00 46 1018.6
20181019164535 59 151 2.0 0.0 0.00 0.00 0.00 49 1019.1
20181019163530 59 159 3.0 0.0 0.00 0.00 0.00 47 1019.1
20181019162530 59 195 2.0 0.0 0.00 0.00 0.00 47 1019.6
20181019161532 59 188 0.0 0.0 0.00 0.00 0.00 48 1020.1
20181019160534 58 191 0.0 0.0 0.00 0.00 0.00 50 1020.1
20181019155531 58 186 0.0 0.0 0.00 0.00 0.00 48 1020.3
20181019154533 57 187 0.0 0.0 0.00 0.00 0.00 50 1020.6
20181019153530 56 142 1.0 0.0 0.00 0.00 0.00 51 1020.6
20181019152531 56 161 3.0 0.0 0.00 0.00 0.00 52 1020.7
20181019151531 54 185 2.0 0.0 0.00 0.00 0.00 54 1021.0
20181019150531 54 183 3.0 0.0 0.00 0.00 0.00 56 1021.0
20181019145532 53 193 0.0 0.0 0.00 0.00 0.00 55 1021.3
20181019144530 52 153 0.0 0.0 0.00 0.00 0.00 58 1021.5
20181019143531 51 165 0.0 0.0 0.00 0.00 0.00 58 1021.5
20181019142532 50 150 0.0 0.0 0.00 0.00 0.00 64 1021.8
20181019141530 48 169 0.0 0.0 0.00 0.00 0.00 67 1021.8
20181019140531 46 184 0.0 0.0 0.00 0.00 0.00 69 1021.8
20181019135530 44 167 0.0 0.0 0.00 0.00 0.00 74 1021.9
20181019134530 41 190 2.0 0.0 0.00 0.00 0.00 80 1022.4
20181019133531 38 198 2.0 0.0 0.00 0.00 0.00 84 1022.4
20181019132531 37 175 1.0 0.0 0.00 0.00 0.00 86 1022.6
20181019131531 36 167 0.0 0.0 0.00 0.00 0.00 88 1022.9
20181019130530 36 165 0.0 0.0 0.00 0.00 0.00 91 1022.9
20181019125530 34 157 1.0 0.0 0.00 0.00 0.00 93 1023.0
20181019124532 34 182 0.0 0.0 0.00 0.00 0.00 96 1023.0
20181019123530 33 192 1.0 0.0 0.00 0.00 0.00 97 1023.0
20181019122530 32 189 0.0 0.0 0.00 0.00 0.00 99 1023.0
20181019121531 31 189 0.0 0.0 0.00 0.00 0.00 100 1023.0
20181019120531 31 177 0.0 0.0 0.00 0.00 0.00 100 1023.0
20181019115532 30 182 0.0 0.0 0.00 0.00 0.00 100 1023.0
20181019114531 29 182 0.0 0.0 0.00 0.00 0.00 100 1023.0
20181019113531 29 182 0.0 0.0 0.00 0.00 0.00 99 1023.0
20181019112531 29 182 0.0 0.0 0.00 0.00 0.00 99 1023.0
20181019111532 29 180 0.0 0.0 0.00 0.00 0.00 98 1023.1
20181019110532 29 180 0.0 0.0 0.00 0.00 0.00 98 1023.1
20181019105531 29 180 0.0 0.0 0.00 0.00 0.00 97 1023.0
20181019104531 29 180 0.0 0.0 0.00 0.00 0.00 97 1023.2
20181019103531 30 180 0.0 0.0 0.00 0.00 0.00 97 1023.2
20181019102531 30 180 0.0 0.0 0.00 0.00 0.00 97 1023.5
20181019101531 30 180 0.0 0.0 0.00 0.00 0.00 97 1023.5
20181019100531 29 180 0.0 0.0 0.00 0.00 0.00 98 1023.5
20181019095531 29 180 0.0 0.0 0.00 0.00 0.00 97 1023.5
20181019094531 29 180 0.0 0.0 0.00 0.00 0.00 97 1023.6
20181019093531 29 180 0.0 0.0 0.00 0.00 0.00 97 1023.6